Terug naar catalogus

COSMOS 371

ActiefMilitairLEO
NORAD 4578·PAYLOAD·🇷🇺 Russia

Gelanceerd Oct 12, 1970 vanaf Plesetsk Cosmodrome

Loading…

Volgende Passages (komende 24 uur)

TLE

VersSource: Space-Track

Epoch: Sep 14, 2026, 14:24 UTC

1 04578U 70083A   26257.60012580  .00000180  00000-0  47651-4 0  9992
2 04578  74.0002   3.8158 0003123 309.2386  50.8500 14.55863284958606

Volg COSMOS 371 in realtime met AllMySat

Download on the App Store